Regional Weather Roundup
Issued by NWS

Home | Current Version | Previous Version | Graphics & Text | Print | Product List | Glossary On
Versions: 1 2 3 4 5 6 7 8 9 10 11 12 13 14 15 16 17 18 19 20 21 22 23 24 25 26 27 28 29 30 31 32 33 34 35 36 37 38 39 40 41 42 43 44 45 46 47 48 49 50
000
ASUS43 KMPX 242301
RWRMN
WEATHER ROUNDUP FOR MINNESOTA
NATIONAL WEATHER SERVICE TWIN CITIES/CHANHASSEN MN
500 PM CST TUE JAN 24 2017


NOTE: "FAIR" INDICATES FEW OR NO CLOUDS BELOW 12,000 FEET WITH NO
SIGNIFICANT WEATHER AND/OR OBSTRUCTIONS TO VISIBILITY. N/A MEANS
CURRENT SKY AND/OR WEATHER CONDITIONS ARE NOT AVAILABLE.

MNZ060>063-068>070-250000-
   Twin Cities Metro

CITY           SKY/WX    TMP DP  RH WIND       PRES   REMARKS
TWIN CITIES    CLOUDY    32  26  78 NE8       29.80F WCI  25
ST PAUL        CLOUDY    33  28  81 E6        29.82F WCI  28
CRYSTAL        CLOUDY    32  24  72 NE7       29.79F WCI  26
LAKEVILLE      CLOUDY    30  30 100 NE6       29.78F WCI  24
EDEN PRAIRIE   CLOUDY    32  26  78 E9        29.78F WCI  24
SOUTH ST PAUL  CLOUDY    33  28  84 NE3       29.80F
LAKE ELMO      CLOUDY    32  30  93 E6        29.81F WCI  26
$$
MNZ001>005-007-008-013>017-022>024-027-028-250000-
   Northwest Minnesota

CITY           SKY/WX    TMP DP  RH WIND       PRES   REMARKS
BEMIDJI        CLOUDY    26  22  84 W3        29.85R
HALLOCK        CLOUDY    28  27  93 NW7       29.88R WCI  21
ROSEAU         MOCLDY    28  23  80 SW3       29.87R
WARROAD        CLOUDY    27  23  86 W6        29.87R WCI  20
THIEF RVR FALL   N/A     25  22  88 W6        29.88  WCI  18
CROOKSTON      CLOUDY    27  23  86 NW5       29.90R WCI  21
FOSSTON        CLOUDY    23  19  86 CALM      29.87R
DETROIT LAKES  CLOUDY    28  25  86 N6        29.83S WCI  22
PARK RAPIDS    CLOUDY    30  22  72 N5        29.81F WCI  25
MAHNOMEN       CLOUDY    25  21  87 NW5       29.85F WCI  19
$$
MNZ006-009>011-018-025>026-250000-
   North Central Minnesota

CITY           SKY/WX    TMP DP  RH WIND       PRES   REMARKS
BAUDETTE       CLOUDY    26  21  81 S3        29.85R
FLAG ISLAND    CLOUDY    27  23  86 SW8       29.84S WCI  18
INTL FALLS     CLOUDY    25  20  81 NW5       29.85R WCI  19
WASKISH        CLOUDY    25  21  86 CALM      29.86R
BIG FORK       CLOUDY    30  23  74 W3        29.84R
LONGVILLE      CLOUDY    28  23  80 CALM      29.82F
GRAND RAPIDS   CLOUDY    28  23  81 CALM      29.85F
CRANE LAKE     CLOUDY    27  25  93 CALM      29.87R
ORR            CLOUDY    28  21  74 CALM      29.82R
COOK           CLOUDY    27  23  86 CALM      29.85R
WALKER         CLOUDY    28  23  81 CALM      29.83S
$$
MNZ012-019>021-037-250000-
   Northeast Minnesota

CITY           SKY/WX    TMP DP  RH WIND       PRES   REMARKS
DULUTH         CLOUDY    31  25  78 N8        29.81F WCI  23
ELY            CLOUDY    28  27  93 CALM      29.83R
HIBBING        CLOUDY    27  24  89 SE3       29.84R
EVELETH        CLOUDY    30  25  82 S3        29.85R
DULUTH HARBOR  CLOUDY    34  28  80 CALM      29.86F
TWO HARBORS    CLOUDY    34  27  75 CALM      29.82F
SILVER BAY     CLOUDY    32  28  86 CALM      29.84R
GRAND MARAIS     N/A     37  29  72 NW5       29.83R
G MARAIS ARPRT CLOUDY    28  23  80 NW5       29.80R WCI  23
$$
MNZ029>031-032-039>041-046>048-054>057-064-250000-
   West Central Minnesota

CITY           SKY/WX    TMP DP  RH WIND       PRES   REMARKS
FERGUS FALLS   CLOUDY    28  25  86 N7        29.86R WCI  21
WHEATON        CLOUDY    30  27  86 N12       29.84S WCI  21
MORRIS         CLOUDY    32  28  86 N10       29.79S WCI  24
ALEXANDRIA     CLOUDY    31  25  78 NE9       29.80R WCI  23
ELBOW LAKE     CLOUDY    31  27  86 NE8       29.81S FOG     WCI  23
WADENA         CLOUDY    28  25  86 N6        29.80R WCI  22
GLENWOOD       CLOUDY    30  27  86 NE12      29.79S WCI  21
APPLETON       CLOUDY    34  27  75 NE8       29.79S WCI  27
MADISON        CLOUDY    34  30  86 E7        29.79R WCI  28
WILLMAR        CLOUDY    32  28  86 NE9       29.80S WCI  24
$$
MNZ033>034-036-042>043-049>051-058-059-250000-
   Central Minnesota

CITY           SKY/WX    TMP DP  RH WIND       PRES   REMARKS
ST CLOUD       CLOUDY    31  26  82 E7        29.81R WCI  24
SAUK CENTRE    CLOUDY    31  26  81 NE6       29.80S WCI  25
PAYNESVILLE    CLOUDY    31  29  94 NE8       29.79F WCI  24
AITKIN         CLOUDY    32  25  74 N7        29.80F WCI  26
PINE RIVER     CLOUDY    28  25  86 N8        29.85S WCI  20
BRAINERD       CLOUDY    29  24  82 N7        29.81S WCI  22
STAPLES        CLOUDY    28  25  86 N5        29.80R WCI  23
LONG PRAIRIE   CLOUDY    32  27  80 NW5       29.80R WCI  27
LITTLE FALLS   CLOUDY    30  25  80 CALM      29.83R
LITCHFIELD     CLOUDY    30  28  93 NE9       29.79F WCI  22
BUFFALO        CLOUDY    31  26  81 NE7       29.81F WCI  24
MAPLE LAKE     CLOUDY    32  28  86 E12       29.81F WCI  23
HUTCHINSON     CLOUDY    32  28  87 NE12G17   29.79F WCI  23
$$
MNZ037-044-045-052-053-250000-
   East Central Minnesota

CITY           SKY/WX    TMP DP  RH WIND       PRES   REMARKS
PRINCETON      CLOUDY    32  27  80 E8        29.82R WCI  25
MORA           CLOUDY    32  27  80 NE5       29.83F WCI  27
CAMBRIDGE      CLOUDY    34  25  69 CALM      29.81R
RUSH CITY      CLOUDY    32  27  80 NE5       29.83R WCI  27
MOOSE LAKE     CLOUDY    32  27  80 N5        29.81F WCI  27
HINCKLEY       CLOUDY    32  28  86 NE5       29.81F WCI  27
CLOQUET        CLOUDY    30  25  80 N6        29.82F WCI  24
MCGREGOR       CLOUDY    30  27  86 NE5       29.82F WCI  25
$$
MNZ071>073-080-081-089-090-097-098-250000-
   Southwest Minnesota

CITY           SKY/WX    TMP DP  RH WIND       PRES   REMARKS
MONTEVIDEO     CLOUDY    30  28  93 E8        29.80S WCI  23
GRANITE FALLS  CLOUDY    32  29  89 NE9       29.79F WCI  24
CANBY          CLOUDY    31  29  90 NE9       29.78S WCI  23
MARSHALL       CLOUDY    30  27  88 NE10      29.76S WCI  21
REDWOOD FALLS  CLOUDY    31  25  78 E6        29.77S WCI  25
OLIVIA         CLOUDY    32  28  86 E9        29.77S WCI  24
PIPESTONE      CLOUDY    28  28 100 E13G20    29.70R FOG     WCI  18
WINDOM         CLOUDY    28  28 100 NE14      29.71F FOG     WCI  17
WORTHINGTON    CLOUDY    28  27  96 NE16      29.69F FOG     WCI  16
JACKSON        CLOUDY    28  28 100 E15       29.70F FOG     WCI  17
TRACY          CLOUDY    30  29  94 NE9       29.75S WCI  22
SLAYTON        CLOUDY    28  27  99 NE14      29.72S FOG     WCI  16
$$
MNZ065>067-074>077-082>085-091>093-250000-
   South Central Minnesota

CITY           SKY/WX    TMP DP  RH WIND       PRES   REMARKS
MANKATO        CLOUDY    31  28  89 NE10      29.75F FOG     WCI  22
NEW ULM        CLOUDY    30  27  86 E10G18    29.75F FOG     WCI  21
ST JAMES       CLOUDY    30  28  93 NE13      29.75S FOG     WCI  20
FAIRMONT       CLOUDY    30  28  92 E15       29.71F FOG     WCI  19
GLENCOE        CLOUDY    32  29  90 NE3       29.77F
OWATONNA       CLOUDY    30  27  86 NE14      29.75F WCI  20
WASECA         CLOUDY    32  30  93 NE9       29.75F WCI  24
ALBERT LEA     CLOUDY    30  28  93 NE12      29.71F FOG     WCI  21
$$
MNZ078>079-086>088-094>096-250000-
   Southeast Minnesota

CITY           SKY/WX    TMP DP  RH WIND       PRES   REMARKS
ROCHESTER      CLOUDY    30  27  88 NE9       29.74F WCI  22
RED WING       CLOUDY    34  27  75 E7        29.79F WCI  28
STANTON        CLOUDY    33  28  82 E7        29.77F WCI  27
DODGE CENTER   CLOUDY    30  27  86 MISG      29.74F FOG
WINONA         CLOUDY    34  30  86 NE3       29.79F
AUSTIN         CLOUDY    30  27  86 E10       29.72F WCI  21
PRESTON        CLOUDY    32  28  88 E9        29.75F WCI  24
$$
ABBREVIATIONS USED IN REMARKS
   TC - TEMPERATURES IN CELSIUS
  WCI - WIND CHILL INDEX
   HX - HEAT INDEX
  VSB - VISIBILITY
$$



USA.gov is the U.S. government's official web portal to all federal, state and local government web resources and services.